[ hide orbit diagram ]
For accurate long-term ephemerides, please instead use our Horizons system.This orbit viewer was implemented using two-body methods, and hence should not be used for determining accurate long-term trajectories (over several years or decades) or planetary encounter circumstances.
Orbital Elements at Epoch 2459000.5 (2020-May-31.0) TDB
Reference: JPL 18 (heliocentric ecliptic J2000)
Element | Value | Uncertainty (1-sigma) | Units |
e | .1951296018171951 | 3.3319e-08 | |
a | 2.345933884347166 | 1.4549e-08 | au |
q | 1.888172739605037 | 7.7691e-08 | au |
i | 5.157316621657569 | 4.8384e-06 | deg |
node | 242.6900046490433 | 4.9491e-05 | deg |
peri | 54.41996035955237 | 5.2235e-05 | deg |
M | 100.3906075668581 | 1.3694e-05 | deg |
tp | 2458634.515526761071 (2019-May-31.01552676) | 5.0362e-05 | TDB |
period | 1312.417700811988 3.59 | 1.2209e-05 3.343e-08 | d yr |
n | .2743029142149405 | 2.5517e-09 | deg/d |
Q | 2.803695029089294 | 1.7388e-08 | au |
|
| | Orbit Determination Parameters
Additional Information
|
[ show covariance matrix ]
Physical Parameter Table
Parameter |
Symbol |
Value |
Units |
Sigma |
Reference |
Notes |
absolute magnitude |
H |
17.2 |
|
n/a |
MPO437681 |
|
|
434593 (2005 UL224) Discovered 2005-Oct-25 by Spacewatch at Kitt Peak |
Reference: | Last Updated: 2015-06-04 |
|
|